Location: Unspecified
(33.6682°S, 0.0000°E)
Time: 03:48:26
(UTC+00:00)

Tiros 1 despin weight - All Passes

Search period start: 17 June 2019 00:00
Search period end: 27 June 2019 00:00
Orbit: 595 x 642 km, 48.2° (Epoch: 15 June)

Date Brightness Start Highest point End Pass type
(mag) Time Alt. Az. Time Alt. Az. Time Alt. Az.
17 Jun - 10:31:32 10° NNE 10:33:17 12° NE 10:35:03 10° ENE daylight
17 Jun - 12:09:35 10° NW 12:14:16 84° NE 12:19:02 10° SE daylight
17 Jun - 13:52:28 10° WSW 13:56:19 24° SSW 14:00:10 10° SSE daylight
17 Jun - 15:36:51 10° SSW 15:39:16 14° S 15:41:41 10° SSE daylight
17 Jun - 17:18:50 10° SSW 17:22:19 20° SSE 17:25:47 10° ESE visible
17 Jun - 18:59:52 10° SW 19:04:35 69° SE 19:09:12 10° ENE visible
17 Jun - 20:42:36 10° W 20:45:45 18° NW 20:48:51 10° N visible
18 Jun - 10:45:43 10° N 10:49:35 26° NE 10:53:31 10° ESE daylight
18 Jun - 12:26:23 10° WNW 12:30:57 51° SSW 12:35:36 10° SE daylight
18 Jun - 14:10:14 10° WSW 14:13:24 17° SSW 14:16:36 10° SSE daylight
18 Jun - 15:53:59 10° SSW 15:56:32 14° S 15:59:05 10° SE daylight
18 Jun - 17:35:13 10° SW 17:39:22 29° SSE 17:43:26 10° E visible
18 Jun - 19:16:33 10° WSW 19:21:11 59° NW 19:25:43 10° NE visible
19 Jun - 11:01:29 10° NW 11:06:01 56° NE 11:10:39 10° ESE daylight
19 Jun - 12:43:40 10° W 12:47:49 30° SSW 12:52:01 10° SE daylight
19 Jun - 14:28:02 10° SW 14:30:37 14° S 14:33:13 10° SSE daylight
19 Jun - 16:10:38 10° SSW 16:13:45 17° SSE 16:16:51 10° SE daylight
19 Jun - 17:51:38 10° SW 17:56:13 48° SSE 18:00:45 10° ENE visible
19 Jun - 19:33:38 10° WSW 19:37:38 28° NW 19:41:33 10° N visible
20 Jun - 09:38:30 10° N 09:41:29 17° NE 09:44:29 10° E daylight
20 Jun - 11:17:57 10° WNW 11:22:37 73° SW 11:27:22 10° SE daylight
20 Jun - 13:01:17 10° WSW 13:04:50 20° SSW 13:08:24 10° SSE daylight
20 Jun - 14:45:28 10° SSW 14:47:53 14° S 14:50:17 10° SSE daylight
20 Jun - 16:27:04 10° SSW 16:30:51 23° SSE 16:34:37 10° ESE daylight
20 Jun - 18:08:11 10° SW 18:12:56 89° NW 18:17:36 10° NE visible
20 Jun - 19:51:53 10° W 19:53:56 13° NW 19:55:59 10° NNW visible
21 Jun - 09:53:36 10° NNW 09:57:49 36° NE 10:02:08 10° ESE daylight
21 Jun - 11:34:58 10° W 11:39:22 40° SSW 11:43:51 10° SE daylight
21 Jun - 13:19:06 10° SW 13:21:59 16° SSW 13:24:53 10° SSE daylight
21 Jun - 15:02:22 10° SSW 15:05:08 15° S 15:07:53 10° SE daylight
21 Jun - 16:43:27 10° SW 16:47:49 35° SSE 16:52:08 10° E daylight
21 Jun - 18:25:00 10° WSW 18:29:28 43° NW 18:33:52 10° NNE visible
22 Jun - 08:32:50 10° NE 08:33:24 10° NE 08:33:59 10° ENE daylight
22 Jun - 10:09:42 10° NW 10:14:19 76° NE 10:19:03 10° SE daylight
22 Jun - 11:52:25 10° W 11:56:18 25° SSW 12:00:15 10° SSE daylight
22 Jun - 13:36:47 10° SW 13:39:13 14° S 13:41:40 10° SSE daylight
22 Jun - 15:18:54 10° SSW 15:22:18 19° SSE 15:25:42 10° ESE daylight
22 Jun - 16:59:54 10° SW 17:04:38 63° SE 17:09:16 10° ENE daylight
22 Jun - 18:42:24 10° W 18:45:51 20° NW 18:49:16 10° N visible
23 Jun - 08:46:03 10° N 08:49:41 23° NE 08:53:23 10° ESE daylight
23 Jun - 10:26:26 10° WNW 10:30:59 55° SW 10:35:38 10° SE daylight
23 Jun - 12:10:08 10° WSW 12:13:23 18° SSW 12:16:39 10° SSE daylight
23 Jun - 13:53:59 10° SSW 13:56:29 14° S 13:59:00 10° SE daylight
23 Jun - 15:35:17 10° SW 15:39:21 27° SSE 15:43:23 10° E daylight
23 Jun - 17:16:33 10° WSW 17:21:15 66° NW 17:25:53 10° NE visible
24 Jun - 09:01:40 10° NNW 09:06:06 49° NE 09:10:38 10° ESE daylight
24 Jun - 10:43:38 10° W 10:47:49 32° SSW 10:52:05 10° SE daylight
24 Jun - 12:27:56 10° SW 12:30:35 15° S 12:33:14 10° SSE daylight
24 Jun - 14:10:42 10° SSW 14:13:43 16° SSE 14:16:44 10° SE daylight
24 Jun - 15:51:41 10° SW 15:56:15 44° SSE 16:00:46 10° ENE daylight
24 Jun - 17:33:33 10° WSW 17:37:43 31° NW 17:41:50 10° NNE visible
25 Jun - 07:39:02 10° NNE 07:41:36 15° NE 07:44:10 10° E daylight
25 Jun - 09:18:03 10° NW 09:22:40 81° SW 09:27:23 10° SE daylight
25 Jun - 11:01:13 10° WSW 11:04:49 21° SSW 11:08:27 10° SSE daylight
25 Jun - 12:45:27 10° SSW 12:47:50 14° S 12:50:13 10° SSE daylight
25 Jun - 14:27:08 10° SSW 14:30:50 22° SSE 14:34:31 10° ESE daylight
25 Jun - 16:08:12 10° SW 16:12:59 83° SE 16:17:40 10° NE daylight
25 Jun - 17:51:28 10° W 17:54:03 15° NW 17:56:38 10° NNW visible
26 Jun - 07:53:52 10° NNW 07:57:55 32° NE 08:02:03 10° ESE daylight
26 Jun - 09:34:59 10° WNW 09:39:24 43° SSW 09:43:54 10° SE daylight
26 Jun - 11:19:00 10° SW 11:21:57 16° SSW 11:24:54 10° SSE daylight
26 Jun - 13:02:25 10° SSW 13:05:06 15° S 13:07:46 10° SE daylight
26 Jun - 14:43:31 10° SW 14:47:49 33° SSE 14:52:06 10° E daylight
26 Jun - 16:24:58 10° WSW 16:29:32 48° NW 16:34:03 10° NNE daylight
